Etusivu
METAR-TAF:

METAR-TAF

Lentoasemat :

Air Force Base Overberg

Bredasdorp, Etelä-Afrikka

Leveyspiiri: 34-33-17S, Pituuspiiri: 20-15-02E, korkeus merenpinnasta: 16 m

Tämänhetkinen sää

Tämä raportti tehtiin 1 tunti ja 12 minuuttia sitten, kello 01.00 UTC
Tuuli 3 kn pohjoisesta
Lämpötila 13°C
Kosteus 77%
Ilmanpaine 1017 hPa

METAR: FAOB 200100Z AUTO 35003KT //// // ////// 13/09 Q1017

Aika: 04:12 (02:12 UTC)


TAF: puuttuu

Säähavainnot ja -ennusteet yli 4000 lentoasemalta (METAR- ja TAF-raportit).

Käytössä olevat sääasemat on merkitty karttaan keltaisilla ja punaisilla pisteillä.

Aseta hiiri pisteen päälle nähdäksesi sääaseman nimen.

Klikkaa sitten nähdäksesi säähavainnot ja -ennusteet.

Kartan vaihtaminen: klikkaa mustalla rastilla varustettuja vihreitä pisteitä, niin voit zoomata sisään; viivalla varustettua vihreää pistettä, niin voit zoomata ulos tai vihreitä nuolia, niin pääset viereisille kartoille.


METAR-TAF: